Regional Weather Roundup
Issued by NWS

Home | Current Version | Previous Version | Text Only | Print | Product List | Glossary On
Versions: 1 2 3 4 5 6 7 8 9 10 11 12 13 14 15 16 17 18 19 20 21 22 23 24 25 26 27 28 29 30 31 32 33 34 35 36 37 38 39 40 41 42 43 44 45 46 47 48 49 50
000
ASUS44 KFWD 051815
RWRTX
NORTH TEXAS HOURLY WEATHER ROUNDUP
NATIONAL WEATHER SERVICE FORT WORTH TX
1200 PM CST THU MAR 05 2015

NOTE: "FAIR" INDICATES FEW OR NO CLOUDS BELOW 12,000 FEET WITH NO
SIGNIFICANT WEATHER AND/OR OBSTRUCTIONS TO VISIBILITY.

TXZ118-119-051900-
DALLAS/FORT WORTH METROPLEX

CITY           SKY/WX    TMP DP  RH WIND       PRES   REMARKS
DFW AIRPORT    SUNNY     31  17  56 N9        30.62S WCI  23
6HR MIN TEMP:  22; 6HR MAX TEMP:  31;

DALLAS LOVE    SUNNY     34  18  52 N14       30.63S WCI  25
6HR MIN TEMP:  24; 6HR MAX TEMP:  34;

FTW MEACHAM    SUNNY     32  17  54 N9        30.63S WCI  24
6HR MIN TEMP:  23; 6HR MAX TEMP:  32;

DAL-EXECUTIVE  SUNNY     33  17  51 N12       30.60F WCI  24
6HR MIN TEMP:  24; 6HR MAX TEMP:  33;

FTW-ALLIANCE   SUNNY     33  19  56 N8        30.63S WCI  26
6HR MIN TEMP:  20; 6HR MAX TEMP:  33;

FTW-SPINKS     SUNNY     34  18  51 N16       30.64S WCI  23
ARLINGTON      SUNNY     34  17  50 N10       30.62S WCI  26
6HR MIN TEMP:  25; 6HR MAX TEMP:  34;

GRAND PRAIRIE  SUNNY     32  19  59 N12       30.64S WCI  23
ADDISON        SUNNY     32  18  55 N13       30.63S WCI  22
MESQUITE       SUNNY     32  18  55 N8G16     30.63S WCI  25
LANCASTER      SUNNY     33  17  51 NE8       30.63S WCI  25
6HR MIN TEMP:  25; 6HR MAX TEMP:  33;

$$

TXZ091>094-102>105-117-120-121-131>134-051900-
NORTH CENTRAL TEXAS

CITY           SKY/WX    TMP DP  RH WIND       PRES   REMARKS
SHRMAN/DENISON SUNNY     34  22  60 N9        30.62S WCI  26
6HR MIN TEMP:  21; 6HR MAX TEMP:  34;

GAINESVILLE    SUNNY     32  18  55 N5        30.63F WCI  27
6HR MIN TEMP:  19; 6HR MAX TEMP:  32;

BOWIE          SUNNY     32  15  50 NW3       30.61F
6HR MIN TEMP:  17; 6HR MAX TEMP:  32;

BRIDGEPORT     SUNNY     34  19  54 N3        30.65F
6HR MIN TEMP:  23; 6HR MAX TEMP:  34;

DECATUR        SUNNY     33  13  42 N8        30.61S WCI  27
6HR MIN TEMP:  19; 6HR MAX TEMP:  33;

DENTON         SUNNY     33  18  53 NW6       30.63S WCI  28
6HR MIN TEMP:  21; 6HR MAX TEMP:  33;

MCKINNEY       SUNNY     32  20  61 N8        30.62S WCI  25
6HR MIN TEMP:  20; 6HR MAX TEMP:  32;

GREENVILLE     SUNNY     32  21  64 N8        30.61F WCI  25
TERRELL        SUNNY     34  24  67 N9        30.62S WCI  27
6HR MIN TEMP:  26; 6HR MAX TEMP:  34; 6HR PCP: TRACE;

WAXAHACHIE     SUNNY     33  20  60 N12G17    30.62S WCI  24
6HR MIN TEMP:  25; 6HR MAX TEMP:  33;

CLEBURNE       SUNNY     30  19  64 N14       30.63R WCI  20
GRANBURY       SUNNY     34  16  47 N12       30.65S WCI  26
6HR MIN TEMP:  24; 6HR MAX TEMP:  34;

$$

TXZ083>090-098>101-113>116-127>130-139>142-154-155-051900-
WESTERN NORTH TEXAS

CITY           SKY/WX    TMP DP  RH WIND       PRES   REMARKS
WICHITA FALLS  SUNNY     35  14  42 N5        30.62F WCI  31
6HR MIN TEMP:  17; 6HR MAX TEMP:  36;

WF-KICKAPOO    SUNNY     36  19  49 N3        30.64S
6HR MIN TEMP:  22; 6HR MAX TEMP:  36;

VERNON         SUNNY     34  12  40 W5        30.62F WCI  30
ABILENE        SUNNY     32  18  56 N3        30.61S
6HR MIN TEMP:  20; 6HR MAX TEMP:  33;

ABILENE-DYESS  SUNNY     31  16  52 VRB7      30.60S WCI  25
6HR MIN TEMP:  20; 6HR MAX TEMP:  31;

BRECKENRIDGE   SUNNY     35  17  46 NE8       30.62S WCI  29
6HR MIN TEMP:  22; 6HR MAX TEMP:  35;

GRAHAM         SUNNY     34  18  52 N5        30.62S WCI  30
6HR MIN TEMP:  19; 6HR MAX TEMP:  34;

MINERAL WELLS  SUNNY     34  14  43 NE10      30.61F WCI  26
6HR MIN TEMP:  21; 6HR MAX TEMP:  34;

STEPHENVILLE   SUNNY     32  19  58 N12G20    30.63S WCI  23
6HR MIN TEMP:  23; 6HR MAX TEMP:  32; 6HR PCP:  0.07;

COMANCHE       SUNNY     33  22  64 NE14      30.61S WCI  23
6HR MIN TEMP:  23; 6HR MAX TEMP:  33;

BROWNWOOD      SUNNY     34  16  47 NE12G21   30.61S WCI  25
COLEMAN        SUNNY     33  21  60 NE13      30.59F WCI  24
6HR MIN TEMP:  24; 6HR MAX TEMP:  33;

BRADY          SUNNY     30  21  69 NE13      30.56S WCI  20
$$

TXZ143>147-156>162-174-175-051900-
CENTRAL TEXAS

CITY           SKY/WX    TMP DP  RH WIND       PRES   REMARKS
WACO           SUNNY     35  23  61 N21       30.61R WCI  24
6HR MIN TEMP:  26; 6HR MAX TEMP:  35;

WACO-MCGREGOR  SUNNY    N/A N/A N/A NE21G26   30.60F
6HR MIN TEMP:  27; 6HR MAX TEMP:  34;

HILLSBORO      SUNNY     33  20  60 N14G23    30.60F WCI  23
6HR MIN TEMP:  26; 6HR MAX TEMP:  33;

CORSICANA      MOSUNNY   35  26  69 MISG      30.60R
6HR MIN TEMP:  27; 6HR MAX TEMP:  35;

MEXIA          PTSUNNY   33  27  79 MISG      30.56F
6HR MIN TEMP:  27; 6HR MAX TEMP:  34;

HEARNE         CLOUDY    34  28  79 N13G20    30.57  WCI  25
6HR MIN TEMP:  30; 6HR MAX TEMP:  35;

CAMERON        MOSUNNY   38  28  68 N15G24    30.57R WCI  29
6HR MIN TEMP:  30; 6HR MAX TEMP:  38;

TEMPLE         SUNNY     37  21  52 N17G28    30.57S WCI  28
6HR MIN TEMP:  27; 6HR MAX TEMP:  37;

KILLEEN        SUNNY     33  22  62 N23G29    30.56S WCI  21
6HR MIN TEMP:  26; 6HR MAX TEMP:  34;

KILLEEN-SKYLRK SUNNY     37  19  48 N17G29    30.56S WCI  28
6HR MIN TEMP:  27; 6HR MAX TEMP:  37;

FORT HOOD      SUNNY     35  25  67 N20G29    30.57R WCI  24
6HR MIN TEMP:  26; 6HR MAX TEMP:  35;

GATESVILLE     SUNNY     34  23  64 N10G18    30.61S WCI  26
HAMILTON       SUNNY     33  21  61 N18       30.59F WCI  22
6HR MIN TEMP:  25; 6HR MAX TEMP:  33;

LAMPASAS       SUNNY     35  27  73 N12G21    30.57S WCI  27
6HR MIN TEMP:  25; 6HR MAX TEMP:  35;

$$

TXZ095>097-106>112-122>126-135>138-148>153-164>167-051900-
EAST TEXAS

CITY           SKY/WX    TMP DP  RH WIND       PRES   REMARKS
PARIS          SUNNY     30  21  69 CALM      30.61S
6HR MIN TEMP:  21; 6HR MAX TEMP:  30; 6HR PCP:  0.04;

SULPHUR SPRNGS SUNNY     32  23  68 N8        30.63S WCI  25
6HR MIN TEMP:  26; 6HR MAX TEMP:  32;

MOUNT PLEASANT SUNNY     35  20  54 N15       30.60F WCI  25
6HR MIN TEMP:  28; 6HR MAX TEMP:  35;

GILMER         SUNNY     34  22  61 N12       30.57S WCI  25
6HR MIN TEMP:  27; 6HR MAX TEMP:  34;

MINEOLA        SUNNY     36  25  64 NE9       30.60S WCI  29
TYLER          SUNNY     37  21  52 NE23G29   30.55S WCI  26
6HR MIN TEMP:  28; 6HR MAX TEMP:  37;

LONGVIEW       SUNNY     37  21  52 NE16G24   30.55S WCI  28
6HR MIN TEMP:  30; 6HR MAX TEMP:  37; 6HR PCP: TRACE;

MARSHALL       SUNNY     38  23  53 N18       30.57S WCI  29
6HR MIN TEMP:  26; 6HR MAX TEMP:  38; 6HR PCP:  0.13;

ATHENS         MOSUNNY   32  25  74 NE13      30.57S WCI  22
PALESTINE      MOSUNNY   37  28  70 N13G21    30.56F WCI  29
JACKSONVILLE   MOSUNNY   35  27  71 NE14G20   30.54S WCI  26
HENDERSON      MOSUNNY   36  23  59 NE12G22   30.55F WCI  28
6HR MIN TEMP:  29; 6HR MAX TEMP:  36;

NACOGDOCHES    MOSUNNY   25  25 100 NE13G22   30.53S WCI  13
6HR MIN TEMP:  25; 6HR MAX TEMP:  34;

LUFKIN         MOSUNNY   39  27  62 N16G23    30.51S WCI  30
6HR MIN TEMP:  34; 6HR MAX TEMP:  40; 6HR PCP:  0.05;

$$

SUPPLEMENTAL OBSERVATIONS (CENTRAL)

CITY           SKY/WX    TMP DP  RH WIND       PRES   REMARKS
$$

SUPPLEMENTAL OBSERVATIONS (WEST)

CITY           SKY/WX    TMP DP  RH WIND       PRES   REMARKS
$$

SUPPLEMENTAL OBSERVATIONS (EAST)

CITY           SKY/WX    TMP DP  RH WIND       PRES   REMARKS
$$

SUPPLEMENTAL OBSERVATIONS ARE A COLLECTION OF AUTOMATED INSTRUMENTS
THAT ARE MAINTAINED BY A VARIETY OF FEDERAL AND STATE AGENCIES.
CERTAIN ELEMENTS...SUCH AS HUMIDITY VALUES AND SUSTAINED WIND
SPEEDS...MAY BE APPROXIMATED.




USA.gov is the U.S. government's official web portal to all federal, state and local government web resources and services.